Location: Killam
(52.7910°N, 111.8608°W)
Time: 12:57:48
(UTC+00:00)

METEOR M2 - Pass Details

Date: 16 March 2026
Orbit: 817 x 824 km, 98.5° (Epoch: 14 April)

Event Time Altitude Azimuth Distance (km) Brightness Sun altitude
Rises 11:03:41 0° 21° (NNE) 3,375 ? -23.3°
Reaches altitude 10° 11:06:19 10° 31° (NNE) 2,437 ? -23.0°
Maximum altitude 11:11:06 32° 94° (E) 1,399 ? -22.3°
Drops below altitude 10° 11:15:51 10° 156° (SSE) 2,420 ? -21.7°
Sets 11:18:27 0° 167° (SSE) 3,347 ? -21.4°
